Weather History for KHKY - March, 2013

Change the Weather History Date:

Thursday, March 21, 2013

  Actual Average Record
Temperature  
Mean Temperature 35 °F -  
Max Temperature 43 °F 62 °F 81 °F (1968)
Min Temperature 28 °F 40 °F 19 °F (1965)
Degree Days  
Heating Degree Days 30    
Moisture  
Dew Point 9 °F    
Average Humidity 35    
Maximum Humidity 55    
Minimum Humidity 27    
Precipitation  
Precipitation 0.00 in - - ()
Sea Level Pressure  
Sea Level Pressure 29.84 in    
Wind  
Wind Speed 8 mph (NW)    
Max Wind Speed 15 mph    
Max Gust Speed 23 mph    
Visibility 10 miles    
Events      
Averages and records for this station are not official NWS values.
T = Trace of Precipitation, MM = Missing Value Source: NWS Daily Summary

Daily Weather History Graph

Daily Weather History Graph

Search for Another Location

Airport or City:

Trip Planner

Search our weather history database for the weather conditions in past years. The results will help you decide how hot, cold, wet, or windy it might be!

Date:

Astronomy

Mar. 21, 2013 Rise Set
Actual Time 7:27 AM EDT 7:38 PM EDT
Civil Twilight 7:01 AM EDT 8:03 PM EDT
Nautical Twilight 6:32 AM EDT 8:33 PM EDT
Astronomical Twilight 6:01 AM EDT 9:03 PM EDT
Moon 2:16 PM EDT (3/21) 3:38 AM EDT (3/21)
Length of Visible Light 13h 01m
Length of Day
12h 10m
Waxing Gibbous, 68% of the Moon is Illuminated
Mar 21
Waxing Gibbous
Mar 27
Full
Apr 3
Last Quarter
Apr 10
New
Apr 18
First Quarter

Hourly Weather History & Observations

Time (EDT) Temp. Windchill Dew Point Humidity Pressure Visibility Wind Dir Wind Speed Gust Speed Precip Events Conditions
12:53 AM 39.0 °F 31.8 °F 24.1 °F 55% 29.81 in 10.0 mi NW 11.5 mph 23.0 mph N/A   Clear
1:53 AM 37.0 °F 31.0 °F 18.0 °F 46% 29.79 in 10.0 mi NW 8.1 mph - N/A   Mostly Cloudy
2:53 AM 35.1 °F 29.3 °F 10.9 °F 37% 29.78 in 10.0 mi NW 6.9 mph - N/A   Clear
3:53 AM 33.1 °F 23.9 °F 3.0 °F 28% 29.77 in 10.0 mi NNW 12.7 mph 20.7 mph N/A   Clear
4:53 AM 32.0 °F 25.6 °F 3.0 °F 29% 29.78 in 10.0 mi NW 6.9 mph - N/A   Clear
5:53 AM 30.0 °F - 7.0 °F 38% 29.78 in 10.0 mi Calm Calm - N/A   Clear
6:53 AM 30.0 °F - 8.1 °F 40% 29.80 in 10.0 mi Calm Calm - N/A   Clear
7:53 AM 28.9 °F 25.2 °F 6.1 °F 38% 29.81 in 10.0 mi WNW 3.5 mph - N/A   Clear
8:53 AM 30.9 °F 22.8 °F 8.1 °F 38% 29.83 in 10.0 mi NW 9.2 mph - N/A   Clear
9:53 AM 33.1 °F 24.9 °F 8.1 °F 35% 29.83 in 10.0 mi NW 10.4 mph - N/A   Clear
10:53 AM 35.1 °F 27.9 °F 7.0 °F 31% 29.84 in 10.0 mi NW 9.2 mph 16.1 mph N/A   Clear
11:53 AM 37.0 °F 30.4 °F 7.0 °F 29% 29.83 in 10.0 mi North 9.2 mph - N/A   Clear
12:53 PM 39.0 °F 31.4 °F 7.0 °F 27% 29.83 in 10.0 mi WNW 12.7 mph 20.7 mph N/A   Clear
1:53 PM 39.9 °F 33.9 °F 10.0 °F 29% 29.82 in 10.0 mi NNW 9.2 mph 16.1 mph N/A   Clear
2:53 PM 41.0 °F 33.9 °F 9.0 °F 27% 29.81 in 10.0 mi NW 12.7 mph 21.9 mph N/A   Partly Cloudy
3:53 PM 42.1 °F 34.5 °F 10.0 °F 27% 29.82 in 10.0 mi NW 15.0 mph 20.7 mph N/A   Clear
4:53 PM 41.0 °F 33.9 °F 9.0 °F 27% 29.84 in 10.0 mi NW 12.7 mph 21.9 mph N/A   Clear
5:53 PM 39.0 °F 32.3 °F 9.0 °F 29% 29.85 in 10.0 mi WNW 10.4 mph - N/A   Clear
6:53 PM 37.9 °F 30.5 °F 9.0 °F 30% 29.86 in 10.0 mi NW 11.5 mph - N/A   Clear
7:53 PM 36.0 °F - 10.0 °F 34% 29.88 in 10.0 mi Calm Calm - N/A   Clear
8:53 PM 34.0 °F 31.0 °F 9.0 °F 35% 29.90 in 10.0 mi NNW 3.5 mph - N/A   Clear
9:53 PM 32.0 °F 28.7 °F 10.0 °F 40% 29.92 in 10.0 mi NNW 3.5 mph - N/A   Clear
10:53 PM 30.9 °F 26.2 °F 12.9 °F 47% 29.93 in 10.0 mi NNE 4.6 mph - N/A   Clear
11:53 PM 30.0 °F 25.2 °F 10.9 °F 45% 29.95 in 10.0 mi North 4.6 mph - N/A   Clear